Tracking 25744 objects as of 25-Jun-2022
HD Live streaming from Space Station
objects crossing your sky now

INTELSAT 2 (PAS 2)

Track INTELSAT 2 (PAS 2) now!
INTELSAT 2 (PAS 2) is classified as:


NORAD ID: 23175
Int'l Code: 1994-040A
Perigee: 36,057.8 km
Apogee: 36,137.8 km
Inclination: 9.7 °
Period: 1,451.7 minutes
Semi major axis: 42468 km
RCS: 6.3096 m2 (large)
Launch date: July 8, 1994
Source: United States (US)
Launch site: FRENCH GUIANA (FRGUI)

12 Ku-band; Asia-Pacific.
aabbcc
Your satellite tracking list
Your tracking list is empty




NASA's NSSDC Master Catalog

Two Line Element Set (TLE):
1 23175U 94040A   22175.58596687 -.00000240  00000-0  00000-0 0  9993
2 23175   9.7185  44.9379 0009419  33.0116 212.4064  0.99197008101221
Source of the keplerian elements: AFSPC